• In Lithuania
  • List of Countries
  • For 7 days
  • Water Temperature
  • Satellite Maps
  • Weather Map
  • Weather Widgets
  • user-avatar
    Login

    Hourly Weather Klagenfurt

    Today, 17 December, Sunday

    Time Temperature Precipitation Wind Pressure Humidity
    00:00 -4°C° 0 mm 1 mps 686 mmHg 85%
    01:00 -4°C° 0 mm 1 mps 686 mmHg 85%
    02:00 -4°C° 0 mm 1 mps 686 mmHg 85%
    03:00 -4°C° 0 mm 1 mps 687 mmHg 85%
    04:00 -4°C° 0 mm 1 mps 687 mmHg 85%
    05:00 -6°C° 0 mm 1 mps 687 mmHg 85%
    06:00 -6°C° 0 mm 1 mps 687 mmHg 85%
    07:00 -6°C° 0 mm 1 mps 688 mmHg 85%
    08:00 -3°C° 0 mm 1 mps 688 mmHg 82%
    09:00 -2°C° 0 mm 1 mps 689 mmHg 80%
    10:00 -1°C° 0 mm 1 mps 689 mmHg 77%
    11:00 0°C° 0 mm 1 mps 690 mmHg 74%
    12:00 +1°C° 0 mm 1 mps 690 mmHg 70%
    13:00 +2°C° 0 mm 1 mps 690 mmHg 67%
    14:00 +1°C° 0 mm 1 mps 690 mmHg 71%
    15:00 0°C° 0 mm 1 mps 690 mmHg 74%
    16:00 -1°C° 0 mm 1 mps 690 mmHg 78%
    17:00 -2°C° 0 mm 1 mps 690 mmHg 79%
    18:00 -3°C° 0 mm 1 mps 691 mmHg 80%
    19:00 -3°C° 0 mm 1 mps 691 mmHg 80%
    20:00 -3°C° 0 mm 1 mps 691 mmHg 80%
    21:00 -4°C° 0 mm 1 mps 692 mmHg 80%
    22:00 -4°C° 0 mm 1 mps 692 mmHg 80%
    23:00 -4°C° 0 mm 1 mps 692 mmHg 80%

    Tomorrow, 18 December, Monday

    Time Temperature Precipitation Wind Pressure Humidity
    00:00 -4°C° 0 mm 1 mps 693 mmHg 80%
    01:00 -4°C° 0 mm 1 mps 693 mmHg 80%
    02:00 -6°C° 0 mm 1 mps 693 mmHg 80%
    03:00 -6°C° 0 mm 1 mps 692 mmHg 80%
    04:00 -6°C° 0 mm 1 mps 692 mmHg 80%
    05:00 -6°C° 0 mm 1 mps 692 mmHg 80%
    06:00 -6°C° 0 mm 1 mps 693 mmHg 79%
    07:00 -7°C° 0 mm 1 mps 693 mmHg 79%
    08:00 -4°C° 0 mm 1 mps 693 mmHg 77%
    09:00 -3°C° 0 mm 1 mps 693 mmHg 74%
    10:00 -2°C° 0 mm 1 mps 693 mmHg 72%
    11:00 -1°C° 0 mm 1 mps 693 mmHg 69%
    12:00 -1°C° 0 mm 0 mps 693 mmHg 66%
    13:00 -1°C° 0 mm 0 mps 693 mmHg 63%
    14:00 -2°C° 0 mm 0 mps 692 mmHg 68%
    15:00 -3°C° 0 mm 0 mps 692 mmHg 73%
    16:00 -4°C° 0 mm 0 mps 691 mmHg 78%
    17:00 -4°C° 0 mm 0 mps 692 mmHg 80%
    18:00 -5°C° 0 mm 0 mps 692 mmHg 82%
    19:00 -6°C° 0 mm 0 mps 692 mmHg 84%
    20:00 -6°C° 0 mm 0 mps 693 mmHg 84%
    21:00 -6°C° 0 mm 0 mps 693 mmHg 84%
    22:00 -6°C° 0 mm 0 mps 693 mmHg 85%
    23:00 -6°C° 0 mm 0 mps 693 mmHg 84%

    Day after tomorrow, 19 December, Tuesday

    Time Temperature Precipitation Wind Pressure Humidity
    00:00 -6°C° 0 mm 0 mps 694 mmHg 84%
    01:00 -7°C° 0 mm 0 mps 694 mmHg 83%
    02:00 -7°C° 0 mm 0 mps 694 mmHg 83%
    03:00 -7°C° 0 mm 1 mps 694 mmHg 83%
    04:00 -7°C° 0 mm 1 mps 694 mmHg 82%
    05:00 -7°C° 0 mm 1 mps 695 mmHg 82%
    06:00 -7°C° 0 mm 1 mps 695 mmHg 82%
    07:00 -7°C° 0 mm 1 mps 696 mmHg 82%
    08:00 -4°C° 0 mm 1 mps 696 mmHg 80%
    09:00 -4°C° 0 mm 0 mps 697 mmHg 77%
    10:00 -3°C° 0 mm 0 mps 698 mmHg 75%
    11:00 -2°C° 0 mm 0 mps 698 mmHg 73%
    12:00 -1°C° 0 mm 0 mps 698 mmHg 72%
    13:00 +1°C° 0 mm 1 mps 698 mmHg 70%
    14:00 0°C° 0 mm 1 mps 698 mmHg 75%
    15:00 -2°C° 0 mm 0 mps 697 mmHg 80%
    16:00 -3°C° 0 mm 0 mps 697 mmHg 84%
    17:00 -3°C° 0 mm 1 mps 697 mmHg 85%
    18:00 -3°C° 0 mm 1 mps 697 mmHg 85%
    19:00 -4°C° 0 mm 1 mps 698 mmHg 86%
    20:00 -4°C° 0 mm 1 mps 698 mmHg 86%
    21:00 -4°C° 0 mm 1 mps 698 mmHg 85%
    22:00 -4°C° 0 mm 1 mps 698 mmHg 85%
    23:00 -3°C° 0 mm 1 mps 697 mmHg 85%

    20 December, Wednesday

    Time Temperature Precipitation Wind Pressure Humidity
    00:00 -3°C° 0 mm 1 mps 697 mmHg 84%
    01:00 -3°C° 0 mm 1 mps 697 mmHg 84%
    02:00 -2°C° 0.1 mm 1 mps 696 mmHg 85%
    03:00 -2°C° 0.1 mm 1 mps 696 mmHg 86%
    04:00 -2°C° 0.1 mm 1 mps 696 mmHg 86%
    05:00 -2°C° 0.1 mm 1 mps 695 mmHg 87%
    06:00 -2°C° 0.1 mm 1 mps 695 mmHg 87%
    07:00 -2°C° 0.1 mm 1 mps 695 mmHg 87%
    08:00 -1°C° 0.1 mm 1 mps 696 mmHg 86%
    09:00 0°C° 0.1 mm 1 mps 696 mmHg 85%
    10:00 0°C° 0.1 mm 1 mps 696 mmHg 83%
    11:00 +1°C° 0.1 mm 1 mps 696 mmHg 82%
    12:00 +2°C° 0.1 mm 1 mps 696 mmHg 81%
    13:00 +3°C° 0.1 mm 1 mps 696 mmHg 80%
    14:00 +2°C° 0 mm 1 mps 696 mmHg 83%
    15:00 +2°C° 0 mm 1 mps 696 mmHg 86%
    16:00 +1°C° 0 mm 1 mps 696 mmHg 90%
    17:00 0°C° 0 mm 1 mps 697 mmHg 90%
    18:00 0°C° 0 mm 1 mps 697 mmHg 91%
    19:00 -1°C° 0 mm 1 mps 697 mmHg 92%
    20:00 -1°C° 0.1 mm 1 mps 698 mmHg 92%
    21:00 -1°C° 0.1 mm 1 mps 698 mmHg 92%
    22:00 -1°C° 0.1 mm 1 mps 698 mmHg 92%
    23:00 0°C° 0.2 mm 1 mps 698 mmHg 91%

    21 December, Thursday

    Time Temperature Precipitation Wind Pressure Humidity
    00:00 0°C° 0.2 mm 1 mps 698 mmHg 91%
    01:00 0°C° 0.2 mm 1 mps 698 mmHg 91%
    02:00 0°C° 0.1 mm 1 mps 698 mmHg 91%
    03:00 0°C° 0.1 mm 1 mps 697 mmHg 91%
    04:00 0°C° 0.1 mm 1 mps 697 mmHg 91%
    05:00 -1°C° 0 mm 1 mps 697 mmHg 91%
    06:00 -1°C° 0 mm 1 mps 697 mmHg 91%
    07:00 -1°C° 0 mm 1 mps 697 mmHg 91%
    08:00 0°C° 0 mm 1 mps 698 mmHg 89%
    09:00 +2°C° 0 mm 1 mps 698 mmHg 87%
    10:00 +3°C° 0 mm 1 mps 698 mmHg 85%
    11:00 +4°C° 0 mm 1 mps 698 mmHg 85%
    12:00 +4°C° 0 mm 1 mps 698 mmHg 85%
    13:00 +5°C° 0 mm 1 mps 698 mmHg 86%
    14:00 +4°C° 0 mm 1 mps 697 mmHg 87%
    15:00 +4°C° 0 mm 1 mps 697 mmHg 89%
    16:00 +3°C° 0 mm 1 mps 697 mmHg 91%
    17:00 +2°C° 0 mm 1 mps 697 mmHg 90%
    18:00 +2°C° 0 mm 1 mps 697 mmHg 90%
    19:00 +2°C° 0 mm 1 mps 697 mmHg 89%
    20:00 +2°C° 0 mm 1 mps 697 mmHg 89%
    21:00 +2°C° 0 mm 1 mps 697 mmHg 88%
    22:00 +2°C° 0 mm 1 mps 697 mmHg 88%
    23:00 +2°C° 0 mm 1 mps 697 mmHg 88%

    22 December, Friday

    Time Temperature Precipitation Wind Pressure Humidity
    00:00 +2°C° 0 mm 1 mps 696 mmHg 88%
    01:00 +1°C° 0 mm 1 mps 696 mmHg 88%
    02:00 +1°C° 0 mm 1 mps 695 mmHg 88%
    03:00 +2°C° 0 mm 1 mps 695 mmHg 88%
    04:00 +2°C° 0 mm 1 mps 694 mmHg 88%
    05:00 +1°C° 0 mm 1 mps 694 mmHg 88%
    06:00 +1°C° 0 mm 1 mps 694 mmHg 89%
    07:00 +1°C° 0 mm 1 mps 694 mmHg 89%
    08:00 +2°C° 0 mm 1 mps 694 mmHg 89%
    09:00 +3°C° 0 mm 1 mps 694 mmHg 88%
    10:00 +3°C° 0 mm 1 mps 694 mmHg 87%
    11:00 +4°C° 0.1 mm 1 mps 694 mmHg 88%
    12:00 +4°C° 0.1 mm 1 mps 693 mmHg 89%
    13:00 +5°C° 0.1 mm 1 mps 693 mmHg 89%
    14:00 +4°C° 0.1 mm 1 mps 694 mmHg 87%
    15:00 +2°C° 0.1 mm 2 mps 694 mmHg 85%
    16:00 +2°C° 0.1 mm 2 mps 694 mmHg 82%
    17:00 +1°C° 0.1 mm 2 mps 695 mmHg 82%
    18:00 -1°C° 0.1 mm 2 mps 695 mmHg 81%
    19:00 -2°C° 0.1 mm 2 mps 696 mmHg 80%
    20:00 0°C° 0 mm 1 mps 696 mmHg 80%
    21:00 0°C° 0 mm 1 mps 696 mmHg 80%
    22:00 -1°C° 0 mm 1 mps 697 mmHg 80%
    23:00 -1°C° 0 mm 1 mps 697 mmHg 81%
    Show more